sat.trackr.live / text

‹ back to catalog

ONEWEB-0195

NORAD 48240 · 2021-031AG

PAYLOAD ACTIVE UNKNOWN

§ Identity

Operator
Country
UK
Launch date
2021-04-25
Launch site
VOSTO
Launch vehicle
Mass (kg)
RCS (m²)

Purposes: comms

External: N2YO · Heavens-Above · Gunter

§ Orbital elements

Epoch: 2026-09-19T19:48:23.821344Z

Period
109.55 min
Inclination
87.8899°
Eccentricity
0.0001556
Mean motion
13.14503525 rev/d
Perigee alt
1,204.6 km
Apogee alt
1,207.0 km
Semi-major
7,583.9 km
B*
-5.9885e-4
RAAN
270.8268°
Arg perigee
86.2471°
Mean anomaly
273.8837°
Rev number
26,058

§ Raw data

ONEWEB-01951 48240U 21031AG  26262.82527571 -.00000209  00000+0 -59885-3 0  99902 48240  87.8899 270.8268 0001556  86.2471 273.8837 13.14503525260585

JSON: /api/v1/satellites/48240 · /tle

For live sub-satellite position, see the globe view (requires WebGL).

§ Visibility from observer

Set your observer location to see the next 7 days of passes ≥ 10°. The values pass through the URL so the page stays shareable.

No JS? Fill the form by hand. The geolocation button needs JavaScript.